This is the latest recevied weather packets stored in our database for station/object N9XRG. If no packets are shown the sender has not sent any weather packets the latest 10 day(s).
| Time | Temp. | Humidity | Pressure | Rain* | Wind** | Luminosity | Snow |
|---|---|---|---|---|---|---|---|
| 1777858244 | 10° C | 78% | 1010.3 hPa | 0 mm | - | 0 W/m² | - |
| 1777857941 | 10° C | 78% | 1010.4 hPa | 0 mm | - | 0 W/m² | - |
| 1777857639 | 10° C | 77% | 1010.2 hPa | 0 mm | - | 0 W/m² | - |
| 1777857335 | 10° C | 77% | 1010.4 hPa | 0 mm | - | 0 W/m² | - |
| 1777857031 | 10° C | 77% | 1010.3 hPa | 0 mm | - | 0 W/m² | - |
| 1777856727 | 10° C | 77% | 1010.4 hPa | 0 mm | - | 0 W/m² | - |
| 1777856423 | 10° C | 76% | 1010.6 hPa | 0 mm | - | 0 W/m² | - |
| 1777856120 | 10° C | 76% | 1010.4 hPa | 0 mm | - | 0 W/m² | - |
| 1777855818 | 10° C | 74% | 1010.5 hPa | 0 mm | - | 0 W/m² | - |
| 1777855516 | 10° C | 73% | 1010.5 hPa | 0 mm | - | 1 W/m² | - |
| 1777855213 | 10° C | 74% | 1010.4 hPa | 0 mm | - | 2 W/m² | - |
| 1777854908 | 10° C | 74% | 1010.6 hPa | 0 mm | - | 3 W/m² | - |
| 1777854606 | 10.56° C | 73% | 1010.5 hPa | 0 mm | - | 6 W/m² | - |
| 1777854302 | 10.56° C | 74% | 1010.6 hPa | 0 mm | - | 8 W/m² | - |
| 1777853999 | 10.56° C | 73% | 1010.6 hPa | 0 mm | - | 8 W/m² | - |
| 1777853697 | 10.56° C | 73% | 1010.5 hPa | 0 mm | - | 8 W/m² | - |
| 1777853393 | 10.56° C | 74% | 1010.6 hPa | 0 mm | - | 7 W/m² | - |
| 1777853090 | 10.56° C | 74% | 1010.7 hPa | 0 mm | - | 8 W/m² | - |
| 1777852788 | 10.56° C | 74% | 1010.9 hPa | 0 mm | - | 12 W/m² | - |
| 1777852485 | 10.56° C | 74% | 1010.8 hPa | 0 mm | - | 22 W/m² | - |
| 1777852182 | 10.56° C | 73% | 1011 hPa | 0 mm | - | 26 W/m² | - |
| 1777851880 | 10.56° C | 75% | 1011.2 hPa | 0 mm | - | 62 W/m² | - |
| 1777851578 | 10.56° C | 74% | 1010.9 hPa | 0 mm | - | 70 W/m² | - |
| 1777851274 | 10.56° C | 74% | 1011 hPa | 0 mm | - | 48 W/m² | - |
| 1777850971 | 10.56° C | 75% | 1011 hPa | 0 mm | - | 40 W/m² | - |
* Rain latest hour (hover to see other rain measurements)
** Current wind speed in m/s (hover to see current wind gust speed)